Flag for U.S.A. Weather past 2 weeks in New Orleans, Louisiana, U.S.A.

Now
70 °F

Sunny.


Feels Like: 77 °F
Forecast: 54 / 74 °F
Wind: 3 mph from North

Location: Lakefront Airport

Current Time: Oct 24, 2014 at 2:07:07 PM

Latest Report: Oct 24, 2014 at 12:53 PM


Visibility: 10 mi

Pressure: 30.07 "Hg

Humidity: 47%

Dew point: 49 °F

Location of New OrleansLocation

Historic Weather in New Orleans — Graph

°F

New Orleans temperature yesterday

Maximum temperature yesterday: 74 °F (at 2:53 PM)
Minimum temperature yesterday: 62 °F (at 6:53 AM)
Average temperature yesterday: 68 °F

Past Weeks' High & Low Weather Summary

 TemperatureHumidityPressure
High88 °F (Oct 13, 12:53 PM)94% (Oct 10, 4:53 AM)30.11 "Hg (Oct 10, 4:53 AM)
Low60 °F (Oct 16, 4:53 AM)36% (Oct 15, 2:53 PM)29.74 "Hg (Oct 13, 4:53 PM)
Average74 °F66%29.99 "Hg
* Reported Oct 9 11:53 AM — Oct 24 11:53 AM, New Orleans, Weather by CustomWeather, © 2014

Note: Actual official high and low records may vary slightly from our data, if they occured in-between our weather recording intervals... More about our weather records

Advertising

New Orleans weather history for previous 24 hours

 ConditionsComfort  
Time TempWeatherWind HumidityBarometerVisibility
11:53 AM
Oct 24
70 °FSunny.6 mph55%30.09 "Hg10 mi
10:53 AM68 °FSunny.5 mph55%30.10 "Hg10 mi
9:53 AM65 °FSunny.8 mph66%30.11 "Hg10 mi
8:53 AM65 °FSunny.10 mph63%30.10 "Hg10 mi
7:53 AM63 °FClear.9 mph68%30.08 "Hg10 mi
6:53 AM63 °FClear.14 mph65%30.07 "Hg10 mi
5:53 AM62 °FClear.15 mph70%30.07 "Hg10 mi
4:53 AM63 °FClear.15 mph68%30.07 "Hg10 mi
3:53 AM64 °FClear.14 mph68%30.06 "Hg10 mi
2:53 AM65 °FClear.13 mph61%30.05 "Hg10 mi
1:53 AM66 °FClear.15 mph59%30.05 "Hg10 mi
12:53 AM67 °FClear.15 mph55%30.06 "Hg10 mi
11:53 PM
Oct 23
69 °FClear.14 mph51%30.06 "Hg10 mi
10:53 PM69 °FClear.12 mph57%30.06 "Hg10 mi
9:53 PM68 °FClear.9 mph57%30.07 "Hg10 mi
8:53 PM70 °FClear.No wind47%30.06 "Hg10 mi
7:53 PM70 °FClear.No wind46%30.04 "Hg10 mi
6:53 PM68 °FSunny.6 mph53%30.03 "Hg10 mi
5:53 PM71 °FSunny.3 mph47%30.04 "Hg10 mi
4:53 PM72 °FSunny.5 mph46%30.02 "Hg10 mi
3:53 PM74 °FSunny.6 mph38%30.02 "Hg10 mi
2:53 PM74 °FSunny.9 mph36%30.03 "Hg10 mi
Weather by CustomWeather, © 2014

See weather overviewHow to use our weather pages